Weather History for Miami, FL

Change the Weather History Date:

Sunday, December 15, 2013

  Actual Average Record
Temperature  
Mean Temperature 80 °F 70 °F  
Max Temperature 86 °F 78 °F 86 °F (2013)
Min Temperature 74 °F 63 °F 35 °F (1944)
Degree Days  
Heating Degree Days 0 1  
Month to date heating degree days 0 11  
Since 1 July heating degree days 2 14  
Cooling Degree Days 15 7  
Month to date cooling degree days 163 110  
Year to date cooling degree days 4704 4482  
Growing Degree Days 30 (Base 50)    
Moisture  
Dew Point 71 °F    
Average Humidity 77    
Maximum Humidity 93    
Minimum Humidity 61    
Precipitation  
Precipitation 0.00 in 0.07 in 1.46 in (1918)
Month to date precipitation 0.46 1.04  
Year to date precipitation 66.21 60.90  
Snow  
Snow 0.00 in - - ()
Month to date snowfall 0.0  
Since 1 July snowfall 0.0  
Snow Depth 0.00 in    
Sea Level Pressure  
Sea Level Pressure 30.01 in    
Wind  
Wind Speed 8 mph (SW)    
Max Wind Speed 17 mph    
Max Gust Speed 21 mph    
Visibility 10 miles    
Events      
T = Trace of Precipitation, MM = Missing Value Source: NWS Daily Summary

Daily Weather History Graph

Daily Weather History Graph

Search for Another Location

Airport:

Trip Planner

Search our weather history database for the weather conditions in past years. The results will help you decide how hot, cold, wet, or windy it might be!

Date:

Astronomy

Dec. 15, 2013 Rise Set
Actual Time 7:00 AM EST 5:32 PM EST
Civil Twilight 6:35 AM EST 5:57 PM EST
Nautical Twilight 6:06 AM EST 6:26 PM EST
Astronomical Twilight 5:38 AM EST 6:54 PM EST
Moon 4:29 PM EST (12/15) 5:22 AM EST (12/15)
Length of Visible Light 11h 22m
Length of Day
10h 32m
Waxing Gibbous, 97% of the Moon is Illuminated
Dec 15
Waxing Gibbous
Dec 17
Full
Dec 25
Last Quarter
Jan 1
New
Jan 7
First Quarter

Hourly Weather History & Observations

Time (EST) Temp. Heat Index Dew Point Humidity Pressure Visibility Wind Dir Wind Speed Gust Speed Precip Events Conditions
12:53 AM 75.9 °F - 71.1 °F 85% 30.01 in 10.0 mi SSE 6.9 mph - N/A   Partly Cloudy
1:53 AM 75.9 °F - 72.0 °F 87% 30.00 in 10.0 mi South 4.6 mph - N/A   Partly Cloudy
2:53 AM 75.9 °F - 72.0 °F 87% 29.99 in 10.0 mi South 5.8 mph - N/A   Partly Cloudy
3:53 AM 75.9 °F - 72.0 °F 87% 29.98 in 10.0 mi Variable 6.9 mph - N/A   Partly Cloudy
4:53 AM 75.0 °F - 72.0 °F 90% 29.97 in 10.0 mi South 4.6 mph - N/A   Partly Cloudy
5:53 AM 73.9 °F - 72.0 °F 93% 29.99 in 10.0 mi South 3.5 mph - N/A   Partly Cloudy
6:53 AM 75.0 °F - 72.0 °F 90% 29.99 in 10.0 mi South 5.8 mph - N/A   Mostly Cloudy
7:53 AM 77.0 °F - 73.0 °F 88% 30.00 in 10.0 mi South 6.9 mph - N/A   Mostly Cloudy
8:53 AM 80.1 °F 84.5 °F 73.9 °F 81% 30.02 in 10.0 mi South 9.2 mph - N/A   Mostly Cloudy
9:53 AM 81.0 °F 85.8 °F 73.0 °F 77% 30.03 in 10.0 mi SSW 10.4 mph - N/A   Mostly Cloudy
10:53 AM 82.0 °F 87.4 °F 73.0 °F 74% 30.03 in 10.0 mi SSW 9.2 mph - N/A   Mostly Cloudy
11:53 AM 84.9 °F 90.7 °F 72.0 °F 65% 30.01 in 10.0 mi SSW 11.5 mph - N/A   Mostly Cloudy
12:53 PM 84.9 °F 89.4 °F 70.0 °F 61% 29.99 in 10.0 mi WSW 12.7 mph 20.7 mph N/A   Mostly Cloudy
1:53 PM 84.9 °F 90.1 °F 71.1 °F 63% 29.96 in 10.0 mi WSW 11.5 mph 20.7 mph N/A   Mostly Cloudy
2:53 PM 84.0 °F 87.8 °F 69.1 °F 61% 29.95 in 10.0 mi West 11.5 mph - N/A   Mostly Cloudy
3:53 PM 82.0 °F 85.5 °F 69.1 °F 65% 29.96 in 10.0 mi West 11.5 mph - N/A   Mostly Cloudy
4:53 PM 79.0 °F - 70.0 °F 74% 29.98 in 10.0 mi West 11.5 mph - N/A   Mostly Cloudy
5:53 PM 78.1 °F - 70.0 °F 76% 29.99 in 10.0 mi WNW 8.1 mph - N/A   Scattered Clouds
6:53 PM 77.0 °F - 70.0 °F 79% 30.01 in 10.0 mi West 8.1 mph - N/A   Mostly Cloudy
7:53 PM 75.9 °F - 70.0 °F 82% 30.03 in 10.0 mi WNW 4.6 mph - N/A   Mostly Cloudy
8:53 PM 75.0 °F - 70.0 °F 84% 30.05 in 10.0 mi West 3.5 mph - N/A   Mostly Cloudy
9:53 PM 73.9 °F - 70.0 °F 87% 30.07 in 10.0 mi WNW 4.6 mph - N/A   Mostly Cloudy
10:45 PM 73.4 °F - 69.8 °F 88% 30.07 in 10.0 mi WNW 3.5 mph - N/A   Overcast
10:53 PM 73.9 °F - 70.0 °F 87% 30.07 in 10.0 mi WNW 5.8 mph - N/A   Overcast
11:24 PM 73.4 °F - 71.6 °F 94% 30.07 in 10.0 mi NNW 3.5 mph - N/A   Overcast
11:53 PM 73.9 °F - 70.0 °F 87% 30.07 in 10.0 mi Variable 4.6 mph - N/A   Overcast